This demonstration page uses our WeatherBlox Daily Observations layout. Learn more.

Left ArrowRight Arrow

53.62937, 11.41316

Hourly Observations for December 29, 2018

Temp ( °F °C ) Dew Point ( °F °C ) Humidity (%) Winds ( mph kmh ) Pressure ( in mb ) Visibility ( mi km ) Precip ( " mm )
6:50 am 06:50 Mostly Cloudy 45 7 45 7 100 100 SW 9 15 30.27 1025 4 6 N/A
7:20 am 07:20 Mostly Cloudy 45 7 45 7 100 100 SW 8 13 30.27 1025 4 6 N/A
7:50 am 07:50 Mostly Cloudy 45 7 45 7 100 100 SW 8 13 30.27 1025 4 6 N/A
8:20 am 08:20 Mostly Cloudy 45 7 45 7 100 100 SW 7 11 30.27 1025 4 6 N/A
8:50 am 08:50 Mostly Cloudy 45 7 45 7 100 100 SW 8 13 30.27 1025 4 6 N/A
9:20 am 09:20 Mostly Cloudy 46 8 34 1 62 62 SW 10 17 30.27 1025 4 6 N/A
9:50 am 09:50 Mostly Cloudy 46 8 45 7 93 93 SW 10 17 30.27 1025 4 6 N/A
10:20 am 10:20 Mostly Cloudy with Mist and Fog 46 8 45 7 93 93 SW 9 15 30.27 1025 3 5 N/A
10:50 am 10:50 Mostly Cloudy with Mist and Fog 46 8 45 7 93 93 SW 12 19 30.27 1025 3 5 N/A
11:20 am 11:20 Mostly Cloudy with Mist and Fog 46 8 45 7 93 93 SW 12 19 30.24 1024 3 5 N/A
11:50 am 11:50 Mostly Cloudy 46 8 43 6 87 87 SW 10 17 30.24 1024 5 8 N/A
12:20 pm 12:20 Mostly Cloudy 46 8 45 7 93 93 SSW 12 19 30.21 1023 5 8 N/A
12:50 pm 12:50 Mostly Cloudy 46 8 43 6 87 87 SSW 15 24 30.21 1023 6 9 N/A
1:20 pm 13:20 Mostly Cloudy 46 8 43 6 87 87 SSW 14 22 30.21 1023 5 8 N/A
1:50 pm 13:50 Mostly Cloudy 46 8 43 6 87 87 SSW 15 24 30.18 1022 5 8 N/A
2:20 pm 14:20 Mostly Cloudy 46 8 43 6 87 87 SSW 12 19 30.18 1022 4 7 N/A
2:50 pm 14:50 Mostly Cloudy 46 8 43 6 87 87 SSW 13 20 30.15 1021 6 9 N/A
3:20 pm 15:20 Mostly Cloudy 46 8 43 6 87 87 SSW 14 22 30.12 1020 5 8 N/A
3:50 pm 15:50 Mostly Cloudy 46 8 43 6 87 87 SSW 13 20 30.12 1020 4 7 N/A
4:20 pm 16:20 Mostly Cloudy 46 8 43 6 87 87 S 12 19 30.09 1019 4 6 N/A
4:50 pm 16:50 Mostly Cloudy with Light Rain 45 7 43 6 93 93 S 12 19 30.09 1019 4 6 N/A
5:20 pm 17:20 Mostly Cloudy with Light Rain 45 7 43 6 93 93 S 10 17 30.06 1018 3 5 N/A
5:50 pm 17:50 Mostly Cloudy 45 7 43 6 93 93 S 12 19 30.03 1017 4 6 N/A
6:20 pm 18:20 Mostly Cloudy with Drizzle 45 7 43 6 93 93 SSW 15 24 30.03 1017 4 7 N/A
6:50 pm 18:50 Mostly Cloudy 45 7 43 6 93 93 SSW 15 24 30.00 1016 4 6 N/A

Powered by AerisWeather